TimeMDT,TemperatureF,Dew PointF,Humidity,Sea Level PressureIn,VisibilityMPH,Wind Direction,Wind SpeedMPH,Gust SpeedMPH,PrecipitationIn,Events,Conditions,WindDirDegrees,DateUTC
12:04 AM,62.6,32.0,32,29.93,10.0,SSW,13.8,-,N/A,,Clear,210,2012-10-03 06:04:00
12:25 AM,62.6,32.0,32,29.93,10.0,SSW,12.7,-,N/A,,Clear,210,2012-10-03 06:25:00
12:44 AM,62.6,32.0,32,29.93,10.0,SSW,12.7,-,N/A,,Clear,200,2012-10-03 06:44:00
1:04 AM,60.8,32.0,34,29.93,10.0,SSW,6.9,-,N/A,,Clear,210,2012-10-03 07:04:00
1:26 AM,60.8,32.0,34,29.93,10.0,SSW,8.1,-,N/A,,Clear,210,2012-10-03 07:26:00
1:48 AM,59.0,32.0,36,29.93,10.0,SW,8.1,-,N/A,,Clear,230,2012-10-03 07:48:00
2:05 AM,57.2,32.0,38,29.93,10.0,SW,8.1,-,N/A,,Clear,230,2012-10-03 08:05:00
2:26 AM,60.8,32.0,34,29.93,10.0,SW,9.2,-,N/A,,Clear,230,2012-10-03 08:26:00
2:48 AM,60.8,32.0,34,29.94,10.0,SW,9.2,-,N/A,,Clear,230,2012-10-03 08:48:00
3:06 AM,60.8,32.0,34,29.94,10.0,SW,10.4,-,N/A,,Clear,230,2012-10-03 09:06:00
3:25 AM,60.8,32.0,34,29.95,10.0,SW,8.1,-,N/A,,Clear,230,2012-10-03 09:25:00
3:51 AM,60.8,32.0,34,29.95,10.0,WSW,9.2,-,N/A,,Clear,240,2012-10-03 09:51:00
4:06 AM,60.8,32.0,34,29.95,10.0,SW,8.1,-,N/A,,Clear,230,2012-10-03 10:06:00
4:56 AM,59.0,32.0,36,29.95,10.0,SSW,6.9,-,N/A,,Clear,200,2012-10-03 10:56:00
5:05 AM,53.6,33.8,47,29.95,10.0,SSW,8.1,-,N/A,,Clear,200,2012-10-03 11:05:00
5:36 AM,51.8,33.8,50,29.96,10.0,South,5.8,-,N/A,,Clear,190,2012-10-03 11:36:00
5:46 AM,50.0,35.6,58,29.96,10.0,South,5.8,-,N/A,,Clear,190,2012-10-03 11:46:00
6:14 AM,51.8,33.8,50,29.96,10.0,SW,6.9,-,N/A,,Clear,220,2012-10-03 12:14:00
6:36 AM,59.0,32.0,36,29.96,10.0,SW,9.2,-,N/A,,Clear,230,2012-10-03 12:36:00
6:47 AM,59.0,32.0,36,29.96,10.0,SW,10.4,-,N/A,,Clear,230,2012-10-03 12:47:00
8:47 AM,68.0,32.0,26,29.97,50.0,South,5.8,-,N/A,,Partly Cloudy,190,2012-10-03 14:47:00
10:58 AM,80.6,26.6,14,29.93,50.0,SW,8.1,-,N/A,,Partly Cloudy,220,2012-10-03 16:58:00
11:50 AM,82.4,24.8,12,29.93,50.0,West,16.1,21.9,N/A,,Partly Cloudy,260,2012-10-03 17:50:00
12:48 PM,82.4,24.8,12,29.92,50.0,West,20.7,25.3,N/A,,Partly Cloudy,270,2012-10-03 18:48:00
1:47 PM,82.4,24.8,12,29.91,50.0,West,4.6,21.9,N/A,,Partly Cloudy,280,2012-10-03 19:47:00
2:54 PM,82.4,23.0,11,29.91,50.0,Calm,Calm,-,N/A,,Scattered Clouds,0,2012-10-03 20:54:00
3:55 PM,84.2,24.8,11,29.91,50.0,WNW,9.2,-,N/A,,Scattered Clouds,300,2012-10-03 21:55:00
4:47 PM,82.4,24.8,12,29.92,50.0,North,10.4,-,N/A,,Mostly Cloudy,10,2012-10-03 22:47:00
5:31 PM,66.2,33.8,30,29.97,40.0,North,32.2,38.0,N/A,,Squalls,10,2012-10-03 23:31:00
5:45 PM,64.4,33.8,32,30.00,40.0,North,34.5,41.4,N/A,,Squalls,10,2012-10-03 23:45:00
6:45 PM,55.4,35.6,47,30.10,30.0,North,26.5,36.8,N/A,,Squalls,10,2012-10-04 00:45:00
7:45 PM,50.0,33.8,54,30.20,30.0,North,25.3,29.9,N/A,,Mostly Cloudy,350,2012-10-04 01:45:00
8:45 PM,46.4,33.8,62,30.29,30.0,North,23.0,27.6,N/A,,Mostly Cloudy,350,2012-10-04 02:45:00
9:27 PM,42.8,32.0,66,30.34,10.0,North,19.6,27.6,N/A,,Clear,10,2012-10-04 03:27:00
9:51 PM,41.0,32.0,70,30.35,10.0,North,13.8,-,N/A,,Scattered Clouds,10,2012-10-04 03:51:00
10:16 PM,41.0,32.0,70,30.36,10.0,North,19.6,23.0,N/A,,Scattered Clouds,360,2012-10-04 04:16:00
10:25 PM,41.0,30.2,65,30.36,10.0,North,19.6,-,N/A,,Scattered Clouds,360,2012-10-04 04:25:00
10:56 PM,39.2,30.2,70,30.37,10.0,North,13.8,-,N/A,,Clear,360,2012-10-04 04:56:00
11:11 PM,37.4,30.2,75,30.37,10.0,North,16.1,-,N/A,,Clear,360,2012-10-04 05:11:00
11:25 PM,37.4,30.2,75,30.37,10.0,North,13.8,-,N/A,,Clear,360,2012-10-04 05:25:00
11:54 PM,37.4,30.2,75,30.37,10.0,North,6.9,-,N/A,,Scattered Clouds,360,2012-10-04 05:54:00